Content
SEND FEEDBACK

Daily
Averages
Monthly
Summary
United States of America

GLEN CANYON CITY, UTAH


Home > North America > United States > Utah
Elevation: 4133 feet     Latitude: 37 05N     Longitude: 111 40W

WEATHER
 
SELECT A DAY
Number of Records: 194,562;   Date Range: 1/1/95 - 7/7/14
 
SHARE

PRINT THIS DATA

[ ← Previous Day ]
WEATHER ALMANAC - APRIL 28, 2013
[ Next Day → ]
[ °C ]   °F
Weather ElementAverageHighLow
Temperature70.1 °F84 °F (4:53 pm)51.8 °F (5:53 am)
Dewpoint15.9 °F19.9 °F (7:53 pm)10.9 °F (1:53 am)
Humidity13.7 %26 % (5:53 am)7 % (1:53 pm)
Barometer29.87 in30.10 in (5:53 am)29.73 in (6:53 pm)
Wind Speed2.5 mph5.8 mph (1:53 pm)
Weather ElementAverage
Visibility10 mi
Wind DirectionENE (79.6 °)

Weather ElementTotal
Precipitation---
Cooling Degree Days2.9 (Base 65)
Growing Degree Days17.9 (Base 50)
Averaged from 23 records on April 28, 2013
WEATHER CONDITIONS BREAKOUT
WIND DIRECTION BREAKOUT
WEATHER BY HOUR - APRIL 28, 2013
[ °C ]   °F
Local TimeTemperatureDewpointHumidityBarometerVisibilityWind DirectionWind SpeedGust SpeedPrecipitationEventsConditions
1:53 AM57.9 °F10.9 °F16 %29.94 in10.0 miWSW (250°)3.5 mphClear
2:53 AM57.0 °F14.0 °F18 %29.94 in10.0 miCalmClear
3:53 AM54.0 °F16.0 °F22 %29.94 in10.0 miCalmClear
4:53 AM54.0 °F16.0 °F22 %29.94 in10.0 miWest (260°)3.5 mphClear
5:53 AM51.8 °F17.6 °F26 %30.10 in10.0 miCalmClear
6:53 AM59.0 °F15.1 °F18 %29.95 in10.0 miCalmClear
7:53 AM61.0 °F17.1 °F18 %29.98 in10.0 miNW (310°)3.5 mphClear
8:53 AM64.0 °F17.1 °F16 %29.96 in10.0 miVariable3.5 mphClear
9:53 AM69.1 °F17.1 °F14 %29.95 in10.0 miNorth (350°)3.5 mphClear
10:53 AM71.1 °F17.1 °F13 %29.94 in10.0 miCalmClear
11:53 AM75.9 °F15.1 °F10 %29.91 in10.0 miCalmClear
12:53 PM81.0 °F12.9 °F8 %29.88 in10.0 miVariable4.6 mphClear
1:53 PM82.4 °F12.2 °F7 %30.01 in10.0 miEast (80°)5.8 mphClear
2:53 PM82.0 °F10.9 °F7 %29.81 in10.0 miVariable3.5 mphClear
3:53 PM82.9 °F12.9 °F7 %29.78 in10.0 miCalmClear
4:53 PM84.0 °F14.0 °F7 %29.76 in10.0 miEast (80°)5.8 mphClear
5:53 PM82.9 °F15.1 °F8 %29.74 in10.0 miVariable4.6 mphClear
6:53 PM79.0 °F17.1 °F10 %29.73 in10.0 miNE (50°)4.6 mphClear
7:53 PM73.9 °F19.9 °F13 %29.73 in10.0 miCalmClear
8:53 PM75.0 °F18.0 °F12 %29.74 in10.0 miSW (220°)5.8 mphClear
9:53 PM75.9 °F19.0 °F12 %29.73 in10.0 miSW (230°)4.6 mphClear
10:53 PM71.1 °F19.9 °F14 %29.74 in10.0 miCalmClear
11:53 PM68.0 °F19.9 °F16 %29.74 in10.0 miCalmClear
Hourly data recorded from KPGA, located miles away from Glen Canyon City, Utah







STORIES FROM OUR PARTNERS